Hourly Data Report for July 24, 2006

TORONTO CITY
ONTARIO

43°40'00.000" N
79°24'00.000" W
112.50 m
6158355
71508
XTO

Download Data

Hourly Data (July 2006)
Hourly Data Report for July 24, 2006
TIME
LST
Temp Definition
°C
Dew Point Definition
°C
Rel Hum Definition
%
Precip. Amount Definition
mm

Wind Dir Definition
10's deg

Wind Spd Definition
km/h
Visibility Definition
km
Stn Press Definition
kPa
Hmdx Definition


Wind Chill Definition


Weather Definition


00:00 17.3 15.5 89   LegendMM LegendMM   100.03     LegendNANA
01:00 17.1 15.6 91   LegendMM LegendMM   100.05     LegendNANA
02:00 16.3 15.1 93   LegendMM LegendMM   100.02     LegendNANA
03:00 15.7 13.9 89   LegendMM LegendMM   100.04     LegendNANA
04:00 15.8 14.5 92   LegendMM LegendMM   100.04     LegendNANA
05:00 14.9 13.5 91   LegendMM LegendMM   100.04     LegendNANA
06:00 15.6 14.1 91   LegendMM LegendMM   100.08     LegendNANA
07:00 18.7 15.7 83   LegendMM LegendMM   100.06     LegendNANA
08:00 20.6 16.6 78   LegendMM LegendMM   100.06 26   LegendNANA
09:00 21.4 17.5 78   LegendMM LegendMM   100.04 27   LegendNANA
10:00 22.1 18.4 80   LegendMM LegendMM   100.04 28   LegendNANA
11:00 23.5 19.3 77   LegendMM LegendMM   100.01 31   LegendNANA
12:00 24.5 19.8 75   LegendMM LegendMM   99.93 32   LegendNANA
13:00 25.7 19.1 67   LegendMM LegendMM   99.89 33   LegendNANA
14:00 26.6 20.0 67   LegendMM LegendMM   99.83 34   LegendNANA
15:00 27.5 17.4 54   LegendMM LegendMM   99.76 33   LegendNANA
16:00 27.3 17.8 56   LegendMM LegendMM   99.74 33   LegendNANA
17:00 26.9 16.6 53   LegendMM LegendMM   99.71 32   LegendNANA
18:00 26.1 17.1 58   LegendMM LegendMM   99.70 31   LegendNANA
19:00 25.4 17.5 62   LegendMM LegendMM   99.72 31   LegendNANA
20:00 25.3 17.8 63   LegendMM LegendMM   99.70 31   LegendNANA
21:00 24.3 18.3 69   LegendMM LegendMM   99.73 31   LegendNANA
22:00 23.6 19.0 75   LegendMM LegendMM   99.73 30   LegendNANA
23:00 23.6 19.3 77   LegendMM LegendMM   99.73 31   LegendNANA

Notes on Data Quality.

Legend

  • E = Estimated
  • M = Missing
  • NA = Not Available*
  • [empty] = Indicates an unobserved value
Date modified: